Location: Bo?a Wola
(50.4192°N, 19.7966°E)
Time: 14:08:42
(UTC+00:00)

USA 267 - Visible Passes

Search period start: 14 September 2024 00:00
Search period end: 24 September 2024 00:00
Orbit: 1096 x 1111 km, 123.1° (Epoch: 11 September)

Date Brightness Start Highest point End Pass type
(mag) Time Alt. Az. Time Alt. Az. Time Alt. Az.
14 Sep 3.9 18:36:30 13° ENE 18:42:04 52° N 18:48:21 10° WNW visible
14 Sep 3.2 20:23:50 65° ENE 20:24:43 75° NNE 20:31:15 10° WNW visible
14 Sep 4.6 22:11:10 28° W 22:11:10 28° W 22:14:17 10° WNW visible
15 Sep 3.9 17:53:17 10° ENE 17:59:34 52° N 18:05:52 10° W visible
15 Sep 3.6 19:39:17 34° ENE 19:42:05 59° NNE 19:48:28 10° WNW visible
15 Sep 3.7 21:26:38 54° WNW 21:26:38 54° WNW 21:31:33 10° WNW visible
15 Sep 5.5 23:13:58 10° WNW 23:13:58 10° WNW 23:14:06 10° WNW visible
16 Sep 3.8 17:10:37 10° ENE 17:17:02 60° NNW 17:23:27 10° W visible
16 Sep 3.8 18:54:45 18° ENE 18:59:33 52° N 19:05:51 10° WNW visible
16 Sep 3.2 20:42:06 75° NE 20:42:12 75° NNE 20:48:44 10° WNW visible
16 Sep 4.9 22:29:26 23° WNW 22:29:26 23° WNW 22:31:46 10° WNW visible
17 Sep 3.9 18:10:47 10° ENE 18:17:04 52° N 18:23:21 10° W visible
17 Sep 3.6 19:57:34 42° ENE 19:59:35 59° NNE 20:05:58 10° WNW visible
17 Sep 4.1 21:44:54 42° WNW 21:44:54 42° WNW 21:49:03 10° WNW visible
18 Sep 3.8 17:28:07 10° ENE 17:34:32 60° NNW 17:40:56 10° W visible
18 Sep 3.8 19:13:01 23° ENE 19:17:03 52° N 19:23:20 10° WNW visible
18 Sep 3.4 21:00:22 69° NNW 21:00:22 69° NNW 21:06:14 10° WNW visible
18 Sep 5.1 22:47:42 18° WNW 22:47:42 18° WNW 22:49:16 10° WNW visible
19 Sep 3.9 18:28:29 11° ENE 18:34:33 52° N 18:40:51 10° W visible
19 Sep 3.6 20:15:50 51° NE 20:17:04 59° NNE 20:23:27 10° WNW visible
19 Sep 4.4 22:03:10 33° WNW 22:03:10 33° WNW 22:06:33 10° WNW visible
20 Sep 3.7 17:45:37 10° ENE 17:52:01 60° NNW 17:58:25 10° W visible
20 Sep 3.8 19:31:18 28° ENE 19:34:33 52° N 19:40:49 10° WNW visible
20 Sep 3.7 21:18:39 56° NW 21:18:39 56° NW 21:23:43 10° WNW visible
20 Sep 5.4 23:05:59 14° WNW 23:05:59 14° WNW 23:06:45 10° WNW visible
21 Sep 3.5 17:02:49 10° ENE 17:09:22 78° NNW 17:15:55 10° WSW visible
21 Sep 3.9 18:46:47 15° ENE 18:52:03 52° N 18:58:20 10° W visible
21 Sep 3.5 20:34:07 58° NNE 20:34:34 59° NNE 20:40:57 10° WNW visible
21 Sep 4.8 22:21:28 26° WNW 22:21:28 26° WNW 22:24:02 10° WNW visible
22 Sep 3.7 18:03:07 10° ENE 18:09:31 60° NNW 18:15:55 10° W visible
22 Sep 3.8 19:49:37 35° ENE 19:52:02 52° N 19:58:19 10° WNW visible
22 Sep 4.1 21:36:58 44° NW 21:36:58 44° NW 21:41:13 10° WNW visible
23 Sep 3.4 17:20:19 10° ENE 17:26:52 78° NNW 17:33:25 10° WSW visible
23 Sep 3.9 19:05:06 20° ENE 19:09:32 52° N 19:15:50 10° W visible
23 Sep 3.6 20:52:28 58° N 20:52:28 58° N 20:58:26 10° WNW visible
23 Sep 5.1 22:39:48 20° WNW 22:39:48 20° WNW 22:41:32 10° WNW visible
